Regional Weather Roundup
Issued by NWS

Home | Current Version | Previous Version | Text Only | Print | Product List | Glossary On
Versions: 1 2 3 4 5 6 7 8 9 10 11 12 13 14 15 16 17 18 19 20 21 22 23 24 25 26 27 28 29 30 31 32 33 34 35 36 37 38 39 40 41 42 43 44 45 46 47 48 49 50
000
ASUS45 KSLC 252310
RWRUT

UTAH REGIONAL WEATHER ROUNDUP
NATIONAL WEATHER SERVICE SALT LAKE CITY UT
500 PM MDT THU AUG 25 2016

UTZ001>011-023>025-260000-

NORTHERN UTAH

CITY           SKY/WX    TMP DP  RH WIND       PRES   REMARKS
BRIGHAM CITY     N/A     81  18   9 SW3       30.02F
HILL AFB       MOSUNNY   78  30  17 NW5       30.05F
LOGAN          MOSUNNY   80  27  14 NW6       30.03F
OGDEN          MOSUNNY   81  26  13 MISG      30.02F
PROVO AIRPORT  PTSUNNY   84  30  14 S8        30.02F
SALT LAKE CITY PTSUNNY   84  30  14 NW9       30.00F
VERNAL         CLOUDY    71  34  25 NW8       30.14R
WENDOVER       SUNNY     81  28  15 SE9       30.01F
HEBER CITY     MOSUNNY   75  27  16 SW10      30.06F
WEST JORDAN    PTSUNNY   79  34  19 NW10      30.03F

$$

UTZ012>022-026-027-260000-

SOUTHERN/CENTRAL UTAH

CITY           SKY/WX    TMP DP  RH WIND       PRES   REMARKS
BLANDING       CLOUDY    77  40  25 S8        30.19R
BRYCE CANYON   LGT RAIN  53  47  79 W5        30.31S
CEDAR CITY     CLOUDY    70  42  36 N15       30.14F
MILFORD        CLOUDY    67  47  48 S31G40    30.13R
MOAB/CYNLANDS  CLOUDY    72  42  34 NW13G30   30.12R
PRICE          CLOUDY    70  38  31 S15       30.14S
ST GEORGE      PTCLDY    93  41  16 S10G16    29.89F

$$

REGIONAL REPORTS     COLORADO/ARIZONA

CITY           SKY/WX    TMP DP  RH WIND       PRES   REMARKS
CRAIG, CO      MOSUNNY   70  28  21 W12       30.18S
GRAND JUNCTION CLOUDY    74  42  31 S14       30.07R
RIFLE          LGT RAIN  73  37  27 N8        30.12R
MONTROSE       CLOUDY    73  43  33 S18G29    30.11F
CORTEZ         CLOUDY    79  40  24 SW12      30.12F
PAGE, AZ       LGT RAIN  72  54  53 N14G22    30.10R
GRAND CANYON   CLOUDY    58  53  84 N5        30.21F
KINGMAN        MOSUNNY   92  43  18 SW14G28   29.97F
FLAGSTAFF      CLOUDY    57  52  83 VRB3      30.26S THUNDER

$$

REGIONAL REPORTS    NEVADA/IDAHO/WYOMING

CITY           SKY/WX    TMP DP  RH WIND       PRES   REMARKS
LAS VEGAS, NV  MOSUNNY  100  29   8 SW16G29   29.79F HX  93
ELY            PTSUNNY   74  27  17 S23G35    30.13R
ELKO           SUNNY     82  14   8 W7G23     30.05F
POCATELLO, ID  MOSUNNY   79  26  14 NW7       30.06F
BURLEY         SUNNY     78  31  17 VRB5      30.02F
EVANSTON, WY   CLOUDY    68  20  16 VRB6G18   30.18F
ROCK SPRINGS   CLOUDY    68  24  19 SW10      30.20F

$$



USA.gov is the U.S. government's official web portal to all federal, state and local government web resources and services.